Location: Blankensee
(53.5126°N, 14.3055°E)
Time: 17:34:29
(UTC+00:00)

Cosmos 2266 Rocket - Pass Details

Date: 08 August 2020
Orbit: 934 x 1008 km, 82.9° (Epoch: 19 September)

Event Time Altitude Azimuth Distance (km) Brightness Sun altitude
Rises 01:07:17 0° 349° (N) 3,749 7.9 -15.9°
Reaches altitude 10° 01:09:52 10° 352° (N) 2,789 7.2 -15.7°
Maximum altitude 01:16:17 74° 77° (ENE) 1,036 4.2 -15.2°
Drops below altitude 10° 01:22:33 10° 163° (SSE) 2,728 6.0 -14.7°
Enters shadow 01:23:39 - 164° (SSE) 3,137 6.3 -14.6°
